• In Austria
  • List of Countries
  • For 7 days
  • Water Temperature
  • Satellite Maps
  • Weather Map
  • News
  • Weather Widgets
  • user-avatar
    Login

    Hourly Weather Kericho

    Today, 19 November, Sunday

    Time Temperature Precipitation Wind Pressure Humidity
    00:00 +15°C° 0 mm 2 mps 597 mmHg 84%
    01:00 +14°C° 0 mm 2 mps 597 mmHg 85%
    02:00 +14°C° 0 mm 2 mps 596 mmHg 88%
    03:00 +14°C° 0 mm 2 mps 596 mmHg 87%
    04:00 +13°C° 0 mm 2 mps 596 mmHg 86%
    05:00 +13°C° 0 mm 2 mps 597 mmHg 85%
    06:00 +15°C° 0 mm 2 mps 598 mmHg 76%
    07:00 +18°C° 0 mm 2 mps 599 mmHg 67%
    08:00 +20°C° 0 mm 2 mps 600 mmHg 57%
    09:00 +23°C° 0 mm 2 mps 601 mmHg 50%
    10:00 +25°C° 0 mm 2 mps 601 mmHg 44%
    11:00 +27°C° 0 mm 2 mps 601 mmHg 37%
    12:00 +26°C° 0.1 mm 2 mps 600 mmHg 43%
    13:00 +24°C° 0.1 mm 2 mps 599 mmHg 48%
    14:00 +23°C° 0.1 mm 1 mps 598 mmHg 54%
    15:00 +22°C° 0.3 mm 1 mps 598 mmHg 60%
    16:00 +20°C° 0.3 mm 1 mps 597 mmHg 67%
    17:00 +19°C° 0.3 mm 1 mps 597 mmHg 74%
    18:00 +18°C° 0.1 mm 1 mps 597 mmHg 77%
    19:00 +18°C° 0.1 mm 1 mps 597 mmHg 80%
    20:00 +16°C° 0.1 mm 2 mps 598 mmHg 83%
    21:00 +16°C° 0 mm 2 mps 598 mmHg 85%
    22:00 +15°C° 0 mm 2 mps 598 mmHg 87%
    23:00 +14°C° 0 mm 2 mps 598 mmHg 89%

    Tomorrow, 20 November, Monday

    Time Temperature Precipitation Wind Pressure Humidity
    00:00 +14°C° 0 mm 2 mps 597 mmHg 90%
    01:00 +14°C° 0 mm 2 mps 597 mmHg 90%
    02:00 +13°C° 0 mm 2 mps 596 mmHg 90%
    03:00 +13°C° 0 mm 2 mps 597 mmHg 90%
    04:00 +13°C° 0 mm 2 mps 597 mmHg 90%
    05:00 +13°C° 0 mm 2 mps 597 mmHg 90%
    06:00 +15°C° 0 mm 2 mps 598 mmHg 80%
    07:00 +18°C° 0 mm 2 mps 599 mmHg 70%
    08:00 +20°C° 0 mm 2 mps 600 mmHg 60%
    09:00 +23°C° 0 mm 2 mps 601 mmHg 52%
    10:00 +25°C° 0 mm 2 mps 601 mmHg 45%
    11:00 +27°C° 0 mm 2 mps 602 mmHg 38%
    12:00 +25°C° 0.5 mm 1 mps 600 mmHg 49%
    13:00 +23°C° 0.5 mm 1 mps 599 mmHg 60%
    14:00 +21°C° 0.5 mm 1 mps 597 mmHg 70%
    15:00 +20°C° 0.6 mm 1 mps 597 mmHg 74%
    16:00 +19°C° 0.6 mm 1 mps 597 mmHg 78%
    17:00 +18°C° 0.6 mm 1 mps 596 mmHg 82%
    18:00 +16°C° 0.1 mm 1 mps 597 mmHg 84%
    19:00 +16°C° 0.1 mm 1 mps 597 mmHg 86%
    20:00 +15°C° 0.1 mm 1 mps 597 mmHg 88%
    21:00 +15°C° 0 mm 1 mps 597 mmHg 89%
    22:00 +14°C° 0 mm 1 mps 597 mmHg 90%
    23:00 +14°C° 0 mm 1 mps 598 mmHg 90%

    Day after tomorrow, 21 November, Tuesday

    Time Temperature Precipitation Wind Pressure Humidity
    00:00 +14°C° 0 mm 1 mps 597 mmHg 91%
    01:00 +13°C° 0 mm 1 mps 596 mmHg 91%
    02:00 +13°C° 0 mm 2 mps 596 mmHg 92%
    03:00 +13°C° 0 mm 2 mps 596 mmHg 92%
    04:00 +13°C° 0 mm 2 mps 596 mmHg 91%
    05:00 +13°C° 0 mm 2 mps 596 mmHg 91%
    06:00 +15°C° 0 mm 2 mps 597 mmHg 81%
    07:00 +18°C° 0 mm 2 mps 598 mmHg 71%
    08:00 +20°C° 0 mm 2 mps 600 mmHg 62%
    09:00 +23°C° 0 mm 2 mps 600 mmHg 53%
    10:00 +26°C° 0 mm 1 mps 601 mmHg 45%
    11:00 +28°C° 0 mm 1 mps 601 mmHg 37%
    12:00 +26°C° 0.2 mm 1 mps 600 mmHg 45%
    13:00 +24°C° 0.2 mm 1 mps 598 mmHg 53%
    14:00 +23°C° 0.2 mm 1 mps 597 mmHg 60%
    15:00 +21°C° 0.8 mm 1 mps 596 mmHg 66%
    16:00 +20°C° 0.8 mm 1 mps 596 mmHg 72%
    17:00 +19°C° 0.8 mm 1 mps 596 mmHg 77%
    18:00 +18°C° 0.6 mm 1 mps 596 mmHg 80%
    19:00 +18°C° 0.6 mm 1 mps 596 mmHg 84%
    20:00 +16°C° 0.6 mm 1 mps 597 mmHg 87%
    21:00 +16°C° 0.1 mm 1 mps 597 mmHg 87%
    22:00 +16°C° 0.1 mm 1 mps 597 mmHg 88%
    23:00 +15°C° 0.1 mm 1 mps 597 mmHg 89%

    22 November, Wednesday

    Time Temperature Precipitation Wind Pressure Humidity
    00:00 +15°C° 0 mm 1 mps 596 mmHg 89%
    01:00 +15°C° 0 mm 1 mps 596 mmHg 89%
    02:00 +15°C° 0 mm 1 mps 596 mmHg 90%
    03:00 +14°C° 0 mm 1 mps 596 mmHg 91%
    04:00 +14°C° 0 mm 1 mps 596 mmHg 91%
    05:00 +14°C° 0 mm 1 mps 596 mmHg 92%
    06:00 +16°C° 0 mm 1 mps 597 mmHg 82%
    07:00 +19°C° 0 mm 1 mps 598 mmHg 73%
    08:00 +22°C° 0 mm 1 mps 600 mmHg 63%
    09:00 +23°C° 0.4 mm 1 mps 600 mmHg 60%
    10:00 +24°C° 0.4 mm 1 mps 600 mmHg 57%
    11:00 +25°C° 0.4 mm 1 mps 600 mmHg 54%
    12:00 +24°C° 1.2 mm 1 mps 598 mmHg 61%
    13:00 +23°C° 1.2 mm 1 mps 597 mmHg 67%
    14:00 +22°C° 1.2 mm 1 mps 596 mmHg 73%
    15:00 +19°C° 1.5 mm 0 mps 596 mmHg 77%
    16:00 +18°C° 1.5 mm 0 mps 596 mmHg 81%
    17:00 +17°C° 1.5 mm 0 mps 595 mmHg 85%
    18:00 +16°C° 1.5 mm 0 mps 596 mmHg 87%
    19:00 +18°C° 1.5 mm 1 mps 597 mmHg 88%
    20:00 +16°C° 1.5 mm 1 mps 597 mmHg 90%
    21:00 +16°C° 0.5 mm 1 mps 597 mmHg 90%
    22:00 +16°C° 0.5 mm 1 mps 597 mmHg 91%
    23:00 +15°C° 0.5 mm 1 mps 597 mmHg 91%

    23 November, Thursday

    Time Temperature Precipitation Wind Pressure Humidity
    00:00 +15°C° 0.1 mm 1 mps 596 mmHg 91%
    01:00 +15°C° 0.1 mm 1 mps 596 mmHg 92%
    02:00 +15°C° 0.1 mm 1 mps 595 mmHg 92%
    03:00 +15°C° 0 mm 1 mps 596 mmHg 91%
    04:00 +15°C° 0 mm 1 mps 596 mmHg 91%
    05:00 +15°C° 0 mm 1 mps 596 mmHg 90%
    06:00 +16°C° 0 mm 1 mps 597 mmHg 82%
    07:00 +19°C° 0 mm 1 mps 598 mmHg 75%
    08:00 +21°C° 0 mm 1 mps 599 mmHg 67%
    09:00 +22°C° 0.4 mm 1 mps 599 mmHg 65%
    10:00 +23°C° 0.4 mm 1 mps 599 mmHg 63%
    11:00 +24°C° 0.4 mm 1 mps 599 mmHg 61%
    12:00 +23°C° 0.9 mm 1 mps 598 mmHg 66%
    13:00 +22°C° 0.9 mm 1 mps 597 mmHg 72%
    14:00 +19°C° 0.9 mm 0 mps 596 mmHg 77%
    15:00 +18°C° 0.9 mm 0 mps 596 mmHg 80%
    16:00 +17°C° 0.9 mm 0 mps 596 mmHg 83%
    17:00 +16°C° 0.9 mm 0 mps 596 mmHg 86%
    18:00 +16°C° 0.7 mm 0 mps 596 mmHg 87%
    19:00 +16°C° 0.7 mm 1 mps 597 mmHg 88%
    20:00 +16°C° 0.7 mm 1 mps 597 mmHg 90%
    21:00 +16°C° 0.2 mm 1 mps 597 mmHg 90%
    22:00 +15°C° 0.2 mm 1 mps 597 mmHg 91%
    23:00 +15°C° 0.2 mm 1 mps 596 mmHg 92%

    24 November, Friday

    Time Temperature Precipitation Wind Pressure Humidity
    00:00 +15°C° 0 mm 1 mps 596 mmHg 92%
    01:00 +14°C° 0 mm 1 mps 596 mmHg 92%
    02:00 +14°C° 0 mm 1 mps 595 mmHg 92%
    03:00 +14°C° 0 mm 1 mps 596 mmHg 92%
    04:00 +14°C° 0 mm 1 mps 596 mmHg 92%
    05:00 +13°C° 0 mm 1 mps 596 mmHg 92%
    06:00 +16°C° 0 mm 1 mps 597 mmHg 83%
    07:00 +19°C° 0 mm 1 mps 599 mmHg 75%
    08:00 +21°C° 0 mm 1 mps 600 mmHg 67%
    09:00 +22°C° 0.6 mm 1 mps 599 mmHg 64%
    10:00 +23°C° 0.6 mm 1 mps 599 mmHg 62%
    11:00 +24°C° 0.6 mm 1 mps 599 mmHg 60%
    12:00 +23°C° 1.2 mm 1 mps 598 mmHg 65%
    13:00 +22°C° 1.2 mm 1 mps 597 mmHg 71%
    14:00 +21°C° 1.2 mm 1 mps 596 mmHg 76%
    15:00 +20°C° 1.9 mm 1 mps 596 mmHg 81%
    16:00 +19°C° 1.9 mm 1 mps 596 mmHg 86%
    17:00 +18°C° 1.9 mm 1 mps 596 mmHg 91%
    18:00 +16°C° 1.6 mm 1 mps 596 mmHg 92%
    19:00 +16°C° 1.6 mm 1 mps 597 mmHg 92%
    20:00 +16°C° 1.6 mm 1 mps 597 mmHg 92%
    21:00 +15°C° 0.4 mm 1 mps 597 mmHg 93%
    22:00 +15°C° 0.4 mm 1 mps 597 mmHg 93%
    23:00 +15°C° 0.4 mm 1 mps 597 mmHg 93%
    Show more